Regional Weather Roundup
Issued by NWS

Home | Current Version | Previous Version | Text Only | Print | Product List | Glossary Off
Versions: 1 2 3 4 5 6 7 8 9 10 11 12 13 14 15 16 17 18 19 20 21 22 23 24 25 26 27 28 29 30 31 32 33 34 35 36 37 38 39 40 41 42 43 44 45 46 47 48 49 50

000
ASUS44 KMEG 290600
RWRTN
TENNESSEE HOURLY STATE WEATHER ROUNDUP
NATIONAL WEATHER SERVICE MEMPHIS TN
100 AM CDT FRI APR 29 2016

TNZ002-004-019-021-049-052-054-088>092-290700-
WEST TENNESSEE

CITY           SKY/WX    TMP DP  RH WIND       PRES   REMARKS
MEMPHIS INTL   CLOUDY    70  51  51 E5        29.95F
NWS MEMPHIS      N/A     60 N/A N/A MISG        N/A
JACKSON        CLEAR     57  55  93 CALM      29.98S
DYERSBURG      CLEAR     59  52  77 CALM      29.98S
UNION CITY     CLEAR     55  54  94 CALM      29.97F
LEXINGTON      CLEAR     55  55 100 CALM      29.98S
$$

TNZ008-025-027-028-033-062-065-066-290700-
NORTH MIDDLE TENNESSEE

CITY           SKY/WX    TMP DP  RH WIND       PRES   REMARKS
NASHVILLE      CLEAR     61  54  77 CALM      30.00S
CLARKSVILLE    CLEAR     58  53  84 CALM      30.00R
COOKEVILLE     CLEAR     52  52 100 CALM      30.00R
CROSSVILLE     CLEAR     66  50  56 NW6       30.03S
$$

TNZ061-075-076-078-094-096-097-290700-
SOUTH MIDDLE TENNESSEE

CITY           SKY/WX    TMP DP  RH WIND       PRES   REMARKS
TULLAHOMA      CLEAR     55  55 100 CALM      30.01S
WINCHESTER     CLEAR     54  54 100 CALM      30.01R
MCMINNVILLE    CLEAR     55  55 100 CALM      30.01R
COLUMBIA       CLEAR    N/A N/A N/A CALM      29.98S
SHELBYVILLE    CLEAR     55  55 100 CALM      30.01S
$$

TNZ017-018-042-046-047-290700-
NORTHEAST TENNESSEE

CITY           SKY/WX    TMP DP  RH WIND       PRES   REMARKS
TRI CITIES     CLEAR     57  55  93 CALM      29.98R
$$

TNZ012-013-036-069-073-074-290700-
CENTRAL EAST TENNESSEE

CITY           SKY/WX    TMP DP  RH WIND       PRES   REMARKS
KNOXVILLE      CLEAR     66  55  67 SW6       29.97S
OAK RIDGE      CLEAR     61  57  87 CALM      29.99S
GATLINBURG     CLEAR     57  55  94 CALM      29.98S
$$

TNZ083-085-099-290700-
SOUTHEAST TENNESSEE

CITY           SKY/WX    TMP DP  RH WIND       PRES   REMARKS
CHATTANOOGA    CLEAR     63  57  81 CALM      29.98R
$$

SKY/WX REPORTED AS FAIR MEANS FEW OR NO CLOUDS BELOW
12 THOUSAND FEET.




USA.gov is the U.S. government's official web portal to all federal, state and local government web resources and services.